Home > Weather > Bratislava > Past weeks

Flag for Slovakia Weather for the Past 2 Weeks in Bratislava, Slovakia

Now
37 °F

Fog.


Feels Like: 37 °F
Forecast: 32 / 46 °F
Wind: 1 mph from Northeast

Location: Bratislava Ivanka

Current Time: Feb 13, 2016 at 6:54:49 PM

Latest Report: Feb 13, 2016 at 6:00 PM


Visibility: N/A

Pressure: 29.39 "Hg

Humidity: 93%

Dew point: 36 °F

Location of BratislavaLocation

Historic Weather in Bratislava — Graph

°F

Bratislava Temperature Yesterday

Maximum temperature yesterday: 45 °F (at 3:00 PM)
Minimum temperature yesterday: 32 °F (at 6:30 AM)
Average temperature yesterday: 38 °F

High & Low Weather Summary for the Past Weeks

 TemperatureHumidityPressure
High55 °F (Feb 2, 12:30 AM)100% (Jan 29, 11:00 PM)30.39 "Hg (Jan 29, 11:00 PM)
Low30 °F (Jan 30, 2:30 AM)49% (Feb 4, 1:30 PM)29.27 "Hg (Feb 10, 9:30 AM)
Average43 °F79%29.92 "Hg
* Reported Jan 29 5:00 PM — Feb 13 5:30 PM, Bratislava, Weather by CustomWeather, © 2016

Note: Actual official high and low records may vary slightly from our data, if they occured in-between our weather recording intervals... More about our weather records

Advertising

Bratislava Weather History for the Previous 24 Hours

 ConditionsComfort  
Time TempWeatherWind HumidityBarometerVisibility
5:30 PM
Sat, Feb 13
37 °FPassing clouds.2 mph93%29.39 "HgN/A
5:00 PM39 °FPassing clouds.5 mph87%29.39 "HgN/A
4:30 PM41 °FPartly sunny.5 mph87%29.39 "HgN/A
4:00 PM43 °FPartly sunny.3 mph81%29.39 "HgN/A
3:30 PM43 °FBroken clouds.3 mph81%29.39 "HgN/A
3:00 PM43 °FBroken clouds.3 mph81%29.39 "HgN/A
2:30 PM43 °FBroken clouds.3 mph81%29.39 "HgN/A
2:00 PM41 °FBroken clouds.5 mph87%29.39 "HgN/A
1:30 PM41 °FPartly sunny.7 mph87%29.39 "HgN/A
1:00 PM41 °FPartly sunny.5 mph87%29.39 "HgN/A
12:30 PM41 °FBroken clouds.5 mph87%29.39 "HgN/A
12:00 PM41 °FPartly sunny.5 mph87%29.39 "HgN/A
11:30 AM41 °FBroken clouds.6 mph87%29.39 "HgN/A
11:00 AM41 °FPartly sunny.3 mph87%29.42 "HgN/A
10:30 AM41 °FLight rain. Broken clouds.5 mph93%29.42 "Hg4 mi
10:00 AM39 °FLight rain. Fog.3 mph100%29.42 "Hg2 mi
9:30 AM39 °FLight rain. Fog.3 mph100%29.42 "Hg2 mi
9:00 AM39 °FDrizzle. Fog.5 mph93%29.42 "Hg2 mi
8:30 AM39 °FDrizzle. Fog.5 mph93%29.42 "Hg2 mi
8:00 AM39 °FDrizzle. Fog.3 mph93%29.42 "Hg2 mi
7:30 AM37 °FDrizzle. Fog.5 mph100%29.42 "Hg2 mi
7:00 AM37 °FDrizzle. Fog.6 mph100%29.39 "Hg2 mi
6:30 AM37 °FDrizzle. Fog.5 mph100%29.39 "Hg3 mi
6:00 AM37 °FLight rain. Mostly cloudy.5 mph100%29.42 "Hg5 mi
5:30 AM37 °FMostly cloudy.6 mph100%29.42 "Hg6 mi
5:00 AM37 °FLow clouds.7 mph93%29.42 "HgN/A
4:30 AM37 °FLow clouds.9 mph93%29.42 "HgN/A
4:00 AM37 °FLow clouds.7 mph93%29.42 "HgN/A
3:30 AM37 °FLow clouds.7 mph93%29.45 "HgN/A
3:00 AM37 °FPassing clouds.6 mph93%29.45 "HgN/A
2:30 AM37 °FPassing clouds.8 mph93%29.45 "HgN/A
2:00 AM39 °FPassing clouds.10 mph87%29.45 "HgN/A
1:00 AM37 °FPassing clouds.10 mph93%29.47 "HgN/A
12:00 AM39 °FLow clouds.10 mph87%29.50 "HgN/A
11:00 PM
Fri, Feb 12
39 °FLow clouds.8 mph87%29.50 "HgN/A
10:30 PM39 °FLight rain. Mostly cloudy.10 mph87%29.53 "HgN/A
10:00 PM39 °FLight rain. Mostly cloudy.8 mph87%29.53 "HgN/A
9:30 PM39 °FPassing clouds.8 mph87%29.56 "HgN/A
9:00 PM39 °FPassing clouds.8 mph87%29.56 "HgN/A
8:00 PM39 °FPartly cloudy.8 mph87%29.59 "HgN/A
7:30 PM39 °FLight rain. Passing clouds.9 mph87%29.59 "HgN/A
7:00 PM39 °FLight rain. Passing clouds.9 mph87%29.62 "HgN/A
6:30 PM41 °FLight rain. Partly cloudy.10 mph76%29.62 "HgN/A
6:00 PM41 °FLight rain. Partly cloudy.8 mph76%29.62 "HgN/A
Weather by CustomWeather, © 2016

See weather overviewHow to use our weather pages